KUIPER-00455

导读

KUIPER-00455(NORAD编号68949)是美国亚马逊“柯伊伯计划”(Project Kuiper)星座中的一颗近地轨道互联网卫星,属于亚马逊第一代卫星互联网系统。该项目旨在构建覆盖全球的卫星互联网,与SpaceX星链系统形成市场竞争,推动全球卫星互联网产业发展。作为柯伊伯星座组网卫星之一,它运行在近地轨道,为实现全球宽带接入提供基础设施支持,目前处于在轨运行状态,是亚马逊大规模卫星星座部署中的组成部分。

基本信息
目录编号:
68949
目录名称:
KUIPER-00455
国际标识:
2026-098AG
轨道中心:
EARTH
卫星名称:
KUIPER-00455
卫星全名:
KUIPER-00455
卫星状态:
在轨 (已飞行49 天)
发射日期:
2026-04-30 UTC
国别 :
美国 (US)
星等 :
--
轨道信息
数据来源 国际轨道数据
星历时间: 2026-06-18T07:25:10+0800
18小时前
查看轨道信息
半长轴: 6860.167km
偏心率: 0.0019397
轨道倾角: 51.877°
近地点辐角 149.205°
升交点赤经 65.736°
平近点角 211.008°
近地点: 468.723km
远地点: 495.337km
周期: 94.246分钟
每日圈数: 15.279205
详细信息
使用方式:
暂无
2D轨道图
3D轨道图
轨道高度分析图
轨道倾角分析图
轨道综合分析图
查看轨道综合分析图